Погода в Батырево

Россия / Чувашская Республика     55°04′02″N   47°36′15″E
темп.,
°C
ветер,
м/с
пор.,
м/с
влажн.,
%
обл.,
%
осадки,
мм/ч
давл.,
гПа
погр.,
м
21 июня, пн
пн2100:00+19з22880 0.0 102212
03:00+18зюз22900 0.0 102215
06:00+21зюз23810 0.0 1022135
09:00+26зюз33630 0.0 1022680
12:00+29з23482 0.0 10221659
15:00+29зсз33474 0.0 10211832
18:00+27з35665 0.0 1021168
21:00+22зсз22784 0.0 102214
22 июня, вт
вт2200:00+21з22851 0.0 102213
03:00+20з22904 0.0 102214
06:00+23зсз23814 0.0 1023149
09:00+27сз22655 0.0 1022655
12:00+29ссв125253 0.0 10221595
15:00+30вюв225051 0.0 10211571
18:00+22юз238498 1.8 102247
21:00+21юв3692100 5.7 1022110
23 июня, ср
ср2300:00+21зсз22795 0.0 102112
03:00+20зсз2285100 0.1 102112
06:00+22зсз23835 0.0 1022139
09:00+27сз23650 0.0 1021658
12:00+30с24490 0.0 10202010
15:00+28ссв4461100 0.0 1020706
18:00+25зюз34721 0.7 101899
21:00+22ююв1183100 2.3 102011
24 июня, чт
чт2400:00+20зсз118375 0.8 101911
03:00+19з228472 1.3 101923
06:00+22сз12845 0.0 1018130
09:00+27ссз22684 0.1 1018543
12:00+29ссв225551 0.0 10181058
15:00+30св225290 0.0 10181088
18:00+29в12651 0.1 1016327
21:00+21з238812 1.2 101728
25 июня, пт
пт2500:00+19з228398 1.4 101729
03:00+18зюз22865 1.4 101615
06:00+22з238377 0.0 1016110
09:00+27зюз226571 0.0 1016512
12:00+30з235198 0.0 10151398
15:00+31ссв234811 0.0 10141700
18:00+22зюз101187100 4.3 1014269
21:00+23з1155100 5.9 101311